Weather History for Burns, OR

Change the Weather History Date:

Monday, April 29, 2013

  Actual Average Record
Temperature  
Mean Temperature 46 °F 46 °F  
Max Temperature 64 °F 61 °F 80 °F (1968)
Min Temperature 27 °F 32 °F 15 °F (1962)
Degree Days  
Heating Degree Days 19 19  
Month to date heating degree days 622 636  
Since 1 July heating degree days 6811 7021  
Cooling Degree Days 0 0  
Month to date cooling degree days 0 0  
Year to date cooling degree days 0 0  
Moisture  
Dew Point 26 °F    
Average Humidity 42    
Maximum Humidity 65    
Minimum Humidity 19    
Precipitation  
Precipitation T in 0.03 in 0.38 in (1948)
Month to date precipitation 0.39 0.90  
Year to date precipitation 1.31 4.20  
Sea Level Pressure  
Sea Level Pressure 29.94 in    
Wind  
Wind Speed 16 mph (WSW)    
Max Wind Speed 30 mph    
Max Gust Speed 37 mph    
Visibility 10 miles    
Events      
T = Trace of Precipitation, MM = Missing Value Source: NWS Daily Summary

Daily Weather History Graph

Daily Weather History Graph

Search for Another Location

Airport:

Trip Planner

Search our weather history database for the weather conditions in past years. The results will help you decide how hot, cold, wet, or windy it might be!

Date:

Astronomy

Apr. 29, 2013 Rise Set
Actual Time 5:50 AM PDT 7:56 PM PDT
Civil Twilight 5:19 AM PDT 8:27 PM PDT
Nautical Twilight 4:41 AM PDT 9:06 PM PDT
Astronomical Twilight 3:59 AM PDT 9:48 PM PDT
Moon No Moon Rise 9:13 AM PDT (4/29)
Length of Visible Light 15h 08m
Length of Day
14h 05m
Waning Gibbous, 79% of the Moon is Illuminated
Apr 29
Waning Gibbous
May 2
Last Quarter
May 9
New
May 17
First Quarter
May 24
Full

Hourly Weather History & Observations

Time (PDT) Temp. Windchill Dew Point Humidity Pressure Visibility Wind Dir Wind Speed Gust Speed Precip Events Conditions
12:53 AM 39.9 °F 36.7 °F 27.0 °F 60% 30.04 in 10.0 mi SSW 4.6 mph - N/A   Clear
1:53 AM 42.1 °F - 27.0 °F 55% 30.02 in 10.0 mi Calm Calm - N/A   Clear
2:53 AM 42.1 °F - 26.1 °F 53% 29.99 in 10.0 mi Calm Calm - N/A   Clear
3:53 AM 45.0 °F 37.9 °F 28.0 °F 52% 29.98 in 10.0 mi SW 16.1 mph - N/A   Clear
4:53 AM 45.0 °F 38.2 °F 32.0 °F 60% 29.96 in 10.0 mi SSW 15.0 mph 23.0 mph N/A   Clear
5:53 AM 44.1 °F 38.6 °F 34.0 °F 68% 29.96 in 10.0 mi SW 10.4 mph - N/A   Clear
6:53 AM 46.0 °F 41.0 °F 36.0 °F 68% 29.97 in 10.0 mi SW 10.4 mph 16.1 mph N/A   Mostly Cloudy
7:53 AM 50.0 °F - 37.0 °F 61% 29.97 in 10.0 mi SW 18.4 mph 28.8 mph N/A   Clear
8:53 AM 52.0 °F - 37.0 °F 57% 29.97 in 10.0 mi SW 19.6 mph 25.3 mph N/A   Overcast
9:53 AM 53.1 °F - 37.0 °F 55% 29.97 in 10.0 mi SW 18.4 mph 27.6 mph N/A   Overcast
10:53 AM 57.9 °F - 37.0 °F 46% 29.95 in 10.0 mi WSW 23.0 mph 29.9 mph 0.00 in   Mostly Cloudy
11:53 AM 60.1 °F - 34.0 °F 38% 29.94 in 10.0 mi WSW 23.0 mph 28.8 mph N/A   Mostly Cloudy
12:53 PM 62.1 °F - 28.9 °F 29% 29.91 in 10.0 mi WSW 25.3 mph 36.8 mph N/A   Mostly Cloudy
1:53 PM 64.0 °F - 27.0 °F 25% 29.88 in 10.0 mi WSW 26.5 mph 34.5 mph N/A   Partly Cloudy
2:53 PM 63.0 °F - 24.1 °F 23% 29.88 in 10.0 mi WSW 23.0 mph 34.5 mph N/A   Clear
3:53 PM 62.1 °F - 21.0 °F 21% 29.87 in 10.0 mi West 25.3 mph 34.5 mph N/A   Clear
4:53 PM 62.1 °F - 19.0 °F 19% 29.87 in 10.0 mi West 18.4 mph 28.8 mph N/A   Clear
5:53 PM 57.9 °F - 16.0 °F 19% 29.90 in 10.0 mi West 19.6 mph 34.5 mph N/A   Clear
6:53 PM 53.1 °F - 12.0 °F 20% 29.91 in 10.0 mi West 21.9 mph 27.6 mph N/A   Clear
7:53 PM 48.0 °F - 12.0 °F 24% 29.93 in 10.0 mi West 19.6 mph 28.8 mph N/A   Clear
8:53 PM 44.1 °F 37.1 °F 16.0 °F 32% 29.95 in 10.0 mi WSW 15.0 mph - N/A   Clear
9:53 PM 41.0 °F 33.5 °F 18.0 °F 40% 29.96 in 10.0 mi WSW 13.8 mph - N/A   Clear
10:00 PM - - - N/A% - - North - - N/A   Unknown
10:53 PM 37.9 °F 30.9 °F 23.0 °F 55% 29.96 in 10.0 mi WSW 10.4 mph - N/A   Clear
11:53 PM 30.0 °F 24.1 °F 19.9 °F 66% 29.98 in 10.0 mi WNW 5.8 mph - N/A   Clear